Погода в Беклемишеве

Россия / Ульяновская область     53°51′32″N   47°24′29″E
темп.,
°C
ветер,
м/с
пор.,
м/с
влажн.,
%
обл.,
%
осадки,
мм/ч
давл.,
гПа
погр.,
м
19 сентября, вс
вс1901:00+2ссз2279100 0.0 102518
04:00+1ссз2283100 0.0 102512
07:00+1с2277100 0.0 102622
10:00+6св225368 0.0 1026632
13:00+10св2140100 0.0 10251165
16:00+11св1138100 0.0 10251241
19:00+8всв2345100 0.0 102447
22:00+6в3652100 0.0 1025128
20 сентября, пн
пн2001:00+5вюв3556100 0.0 1025101
04:00+3в376321 0.0 1025143
07:00+4вюв496599 0.0 1025268
10:00+8вюв5749100 0.0 1024580
13:00+9вюв6747100 0.1 1024949
16:00+8вюв5860100 0.3 1023948
19:00+8в51062100 0.5 1023626
22:00+6в61179100 1.9 1023763
21 сентября, вт
вт2101:00+7вюв61384100 0.7 1022683
04:00+7вюв61378100 1.4 1021560
07:00+6вюв61387100 0.2 1020523
10:00+7вюв6139098 0.3 1020599
13:00+8вюв6128299 0.0 1019611
16:00+10вюв6966100 0.0 1018743
19:00+8в61171100 0.0 1017374
22:00+7в51275100 0.0 1017338
22 сентября, ср
ср2201:00+6в5128090 0.0 1015263
04:00+7в41077100 0.2 1014280
07:00+7в51390100 2.3 1012337
10:00+9юв51493100 6.6 1012498
13:00+13ююв61078100 0.2 1012570
16:00+11юв479483 0.6 1013355
19:00+11юв4998100 0.0 1015407
22:00+11юв3798100 0.0 1016287
23 сентября, чт
чт2301:00+10вюв3984100 0.3 1016269
04:00+9юв4108140 0.4 1017313
07:00+8юв2875100 0.0 1017211
10:00+12ююв4659100 0.0 1018357
13:00+10ююв4981100 0.1 1019322
16:00+11ююв41095100 0.8 1020654
19:00+10юв61293100 0.2 1021658
22:00+9юв5118988 0.2 1021624